{"data":{"norad_id":56462,"epoch":"2026-05-24T18:35:13.368192Z","epoch_age_seconds":94549,"freshness":"FRESH","line1":"1 56462U 23064Q   26144.77446028 -.00000037  00000+0  46646-5 0  9994","line2":"2 56462  69.9987 272.4112 0003285 268.8787  91.1996 14.98332761167638","mean_motion":14.98332761,"eccentricity":0.0003285,"inclination_deg":69.9987,"raan_deg":272.4112,"arg_perigee_deg":268.8787,"mean_anomaly_deg":91.1996,"bstar":4.6646e-6,"rev_number":16763,"period_min":96.106822027901,"perigee_km":569.76421723289,"apogee_km":574.33048835268,"semimajor_km":6950.1843527928,"source":"CELESTRAK","updated_at":"2026-05-25T13:38:18.069024Z"}}